Home   Weather   Taloyoak   Past weeks

Flag for Canada Past Weather in Taloyoak, Nunavut, Canada — Yesterday and Last 2 Weeks

Now
-11 °F

Passing clouds.


Feels Like: -30 °F
Forecast: -13 / 9 °F
Wind: 10 mph from North

Location: Spence Bay Airport

Current Time: Apr 30, 2017 at 3:15:55 am

Latest Report: Apr 30, 2017 at 2:00 am


Visibility: 15 mi

Pressure: 30.13 "Hg

Humidity: 70%

Dew Point: -18 °F

Location of TaloyoakLocation

Past Weather in Taloyoak — Graph

°F

Taloyoak Temperature Yesterday

Maximum temperature yesterday: 5 °F (at 1:00 pm)
Minimum temperature yesterday: -8 °F (at 12:00 am)
Average temperature yesterday: -2 °F

High & Low Weather Summary for the Past Weeks

 TemperatureHumidityPressure
High10 °F (Apr 23, 2:00 pm)84% (Apr 20, 5:00 am)30.39 "Hg (Apr 20, 5:00 am)
Low-22 °F (Apr 19, 4:00 am)64% (Apr 25, 10:00 pm)29.80 "Hg (Apr 18, 9:40 am)
Average-6 °F73%30.16 "Hg
* Reported Apr 15 1:00 am — Apr 30 1:00 am, Taloyoak, Weather by CustomWeather, © 2017

Note: Actual official high and low records may vary slightly from our data, if they occured in-between our weather recording intervals... More about our weather records

Advertising

Taloyoak Weather History for the Previous 24 Hours

Scroll right to see more
 ConditionsComfort  
Time TempWeatherWind HumidityBarometerVisibility
1:00 am
Sun, Apr 30
-11 °FPassing clouds.10 mph70%30.12 "Hg15 mi
12:00 am-11 °FPassing clouds.10 mph76%30.12 "Hg15 mi
11:00 pm
Sat, Apr 29
-8 °FPassing clouds.15 mph70%30.11 "Hg15 mi
10:00 pm-8 °FPassing clouds.9 mph70%30.11 "Hg15 mi
9:00 pm-6 °FPassing clouds.14 mph77%30.11 "Hg15 mi
8:00 pm-2 °FLow level haze.13 mph71%30.12 "Hg15 mi
7:16 pm1 °FScattered flurries. Scattered clouds.15 mph71%30.12 "Hg15 mi
6:00 pm3 °FScattered flurries. Scattered clouds.20 mph72%30.11 "Hg15 mi
5:00 pm5 °FScattered clouds.20 mph72%30.12 "Hg15 mi
4:00 pm5 °FScattered clouds.20 mph72%30.11 "Hg15 mi
3:00 pm5 °FScattered clouds.15 mph72%30.11 "Hg15 mi
2:00 pm5 °FPassing clouds.16 mph72%30.11 "Hg15 mi
1:00 pm5 °FLow level haze.15 mph66%30.12 "Hg15 mi
12:00 pm1 °FLow level haze.18 mph71%30.12 "Hg15 mi
11:00 am0 °FLow level haze.18 mph71%30.14 "Hg15 mi
10:00 am0 °FLow level haze.14 mph65%30.15 "Hg15 mi
9:00 am-2 °FScattered clouds.17 mph71%30.16 "Hg15 mi
8:00 am-4 °FScattered clouds.15 mph65%30.17 "Hg15 mi
7:00 am-8 °FScattered clouds.15 mph70%30.17 "Hg15 mi
6:00 am-8 °FLow level haze.16 mph70%30.18 "Hg15 mi
5:00 am-8 °FLow level haze.17 mph77%30.19 "Hg15 mi
4:00 am-6 °FLow level haze.14 mph70%30.20 "Hg15 mi
3:00 am-6 °FLow level haze.23 mph70%30.20 "Hg14 mi
Weather by CustomWeather, © 2017

See weather overviewHow to use our weather pages